Location: *
(55.5817°S, 142.4781°W)
Time: 08:38:49
(UTC+00:00)

Cosmos 2263 Rocket - Pass Details

Date: 29 April 2025
Orbit: 821 x 849 km, 71.0° (Epoch: 19 May)

Event Time Altitude Azimuth Distance (km) Brightness Sun altitude
Exits shadow 13:57:54 44° 219° (SW) 1,158 2.6 -24.6°
Maximum altitude 13:59:49 83° 301° (WNW) 849 2.0 -24.4°
Drops below altitude 10° 14:05:24 10° 28° (NNE) 2,434 4.8 -23.6°
Sets 14:07:49 0° 29° (NNE) 3,361 5.6 -23.2°
